Oscoda, MI

5:19 PM EDT on April 20, 2018 (GMT -0400)
Oscoda-Wurtsmith

Weather History for KOSC - September, 2013

Change the Weather History Date:

Friday, September 27, 2013

  Actual Average Record
Temperature  
Mean Temperature 56 °F -  
Max Temperature 72 °F 62 °F 75 °F (1999)
Min Temperature 39 °F 44 °F 37 °F (2012)
Degree Days  
Heating Degree Days 10    
Growing Degree Days 6 (Base 50)    
Moisture  
Dew Point 50 °F    
Average Humidity 83    
Maximum Humidity 99    
Minimum Humidity 43    
Precipitation  
Precipitation 0.00 in - - ()
Sea Level Pressure  
Sea Level Pressure 30.21 in    
Wind  
Wind Speed 1 mph (ESE)    
Max Wind Speed 8 mph    
Max Gust Speed -    
Visibility 8 miles    
Events Fog    
Averages and records for this station are not official NWS values.
T = Trace of Precipitation, MM = Missing Value Source: NWS Daily Summary

Daily Weather History Graph

Daily Weather History Graph

Search for Another Location

Airport or City:

Astronomy

Sep. 27, 2013 Rise Set
Actual Time 7:26 AM EDT 7:21 PM EDT
Civil Twilight 6:57 AM EDT 7:50 PM EDT
Nautical Twilight 6:23 AM EDT 8:23 PM EDT
Astronomical Twilight 5:49 AM EDT 8:58 PM EDT
Moon 12:08 AM EDT (9/27) 3:10 PM EDT (9/27)
Length of Visible Light 12h 52m
Length of Day
11h 54m
Last Quarter, 45% of the Moon is Illuminated
Sep 27
Last Quarter
Oct 4
New
Oct 11
First Quarter
Oct 18
Full
Oct 26
Last Quarter

Hourly Weather History & Observations

Time (EDT) Temp. Dew Point Humidity Pressure Visibility Wind Dir Wind Speed Gust Speed Precip Events Conditions
12:13 AM 45.0 °F 44.6 °F 99% 30.16 in 0.2 mi Calm Calm - N/A Fog Fog
12:34 AM 45.1 °F 44.8 °F 99% 30.16 in 0.2 mi Calm Calm - N/A Fog Fog
12:54 AM 44.6 °F 44.1 °F 98% 30.16 in 0.8 mi Calm Calm - N/A   Overcast
1:13 AM 44.1 °F 43.7 °F 99% 30.16 in 0.5 mi Calm Calm - N/A Fog Fog
1:34 AM 44.6 °F 44.4 °F 99% 30.16 in 7.0 mi Calm Calm - N/A   Scattered Clouds
1:53 AM 42.3 °F 41.9 °F 99% 30.17 in 10.0 mi Calm Calm - N/A   Clear
2:13 AM 42.8 °F 42.4 °F 99% 30.17 in 10.0 mi Calm Calm - N/A   Clear
2:34 AM 43.3 °F 43.0 °F 99% 30.17 in 10.0 mi Calm Calm - N/A   Clear
2:53 AM 43.7 °F 43.5 °F 99% 30.17 in 10.0 mi Calm Calm - N/A   Scattered Clouds
3:13 AM 41.4 °F 41.0 °F 99% 30.17 in 10.0 mi Calm Calm - N/A   Mostly Cloudy
3:34 AM 41.4 °F 40.8 °F 98% 30.18 in 4.0 mi Calm Calm - N/A   Mostly Cloudy
3:53 AM 42.1 °F 41.5 °F 98% 30.18 in 0.8 mi Calm Calm - N/A   Overcast
4:13 AM 42.1 °F 41.5 °F 98% 30.18 in 0.8 mi Calm Calm - N/A   Overcast
4:34 AM 43.0 °F 42.8 °F 99% 30.19 in 2.0 mi Calm Calm - N/A   Overcast
4:53 AM 42.1 °F 41.9 °F 99% 30.19 in 0.5 mi Calm Calm - N/A Fog Fog
5:13 AM 41.4 °F 41.0 °F 99% 30.20 in 0.8 mi Calm Calm - N/A   Overcast
5:34 AM 41.2 °F 41.0 °F 99% 30.20 in 7.0 mi Calm Calm - N/A   Overcast
5:53 AM 41.0 °F 40.6 °F 99% 30.20 in 0.8 mi Calm Calm - N/A   Overcast
6:13 AM 40.3 °F 40.1 °F 99% 30.21 in 0.8 mi Calm Calm - N/A   Overcast
6:34 AM 40.5 °F 40.1 °F 99% 30.21 in 5.0 mi Calm Calm - N/A   Scattered Clouds
6:53 AM 40.1 °F 39.6 °F 98% 30.22 in 10.0 mi Calm Calm - N/A   Clear
7:13 AM 40.5 °F 40.1 °F 99% 30.22 in 7.0 mi Calm Calm - N/A   Clear
7:34 AM 39.6 °F 39.0 °F 98% 30.23 in 10.0 mi Calm Calm - N/A   Clear
7:53 AM 39.0 °F 37.8 °F 95% 30.23 in 10.0 mi Calm Calm - N/A   Clear
8:13 AM 40.3 °F 39.4 °F 97% 30.23 in 10.0 mi Calm Calm - N/A   Clear
8:34 AM 44.2 °F 43.7 °F 98% 30.23 in 10.0 mi Calm Calm - N/A   Clear
8:53 AM 48.2 °F 47.7 °F 98% 30.23 in 10.0 mi Calm Calm - N/A   Clear
9:13 AM 51.3 °F 50.5 °F 97% 30.24 in 10.0 mi Calm Calm - N/A   Clear
9:34 AM 54.0 °F 52.7 °F 95% 30.24 in 10.0 mi Calm Calm - N/A   Clear
9:53 AM 56.8 °F 54.9 °F 93% 30.24 in 10.0 mi Calm Calm - N/A   Clear
10:13 AM 59.5 °F 56.5 °F 90% 30.24 in 10.0 mi Calm Calm - N/A   Clear
10:34 AM 61.9 °F 57.9 °F 87% 30.24 in 10.0 mi Calm Calm - N/A   Clear
10:53 AM 63.3 °F 58.1 °F 83% 30.24 in 10.0 mi Calm Calm - N/A   Clear
11:14 AM 65.1 °F 55.9 °F 72% 30.24 in 10.0 mi Calm Calm - N/A   Clear
11:34 AM 67.1 °F 54.5 °F 64% 30.24 in 10.0 mi Calm Calm - N/A   Clear
11:53 AM 68.7 °F 54.3 °F 60% 30.24 in 10.0 mi Calm Calm - N/A   Clear
12:14 PM 69.4 °F 57.7 °F 66% 30.25 in 10.0 mi East 5.8 mph - N/A   Clear
12:34 PM 68.2 °F 57.6 °F 69% 30.24 in 10.0 mi East 5.8 mph - N/A   Clear
12:53 PM 69.4 °F 58.3 °F 68% 30.24 in 10.0 mi East 4.6 mph - N/A   Clear
1:14 PM 70.3 °F 58.8 °F 67% 30.24 in 10.0 mi East 5.8 mph - N/A   Clear
1:34 PM 70.7 °F 58.1 °F 64% 30.24 in 10.0 mi ESE 4.6 mph - N/A   Clear
1:53 PM 70.3 °F 57.7 °F 64% 30.23 in 10.0 mi East 5.8 mph - N/A   Clear
2:14 PM 70.5 °F 57.7 °F 64% 30.23 in 10.0 mi ESE 5.8 mph - N/A   Clear
2:34 PM 72.0 °F 57.2 °F 60% 30.22 in 10.0 mi East 4.6 mph - N/A   Clear
2:53 PM 72.0 °F 56.3 °F 58% 30.22 in 10.0 mi East 8.1 mph - N/A   Clear
3:14 PM 72.1 °F 54.0 °F 53% 30.21 in 10.0 mi ESE 6.9 mph - N/A   Clear
3:33 PM 72.1 °F 52.5 °F 50% 30.21 in 10.0 mi ESE 8.1 mph - N/A   Clear
3:53 PM 72.3 °F 48.4 °F 43% 30.21 in 10.0 mi ESE 6.9 mph - N/A   Clear
4:14 PM 72.1 °F 50.5 °F 46% 30.20 in 10.0 mi ESE 5.8 mph - N/A   Clear
4:33 PM 72.0 °F 50.9 °F 47% 30.20 in 10.0 mi ESE 6.9 mph - N/A   Clear
4:53 PM 71.1 °F 50.9 °F 49% 30.20 in 10.0 mi ESE 6.9 mph - N/A   Clear
5:14 PM 70.5 °F 50.5 °F 49% 30.20 in 10.0 mi ESE 6.9 mph - N/A   Clear
5:33 PM 69.8 °F 49.1 °F 48% 30.20 in 10.0 mi ESE 6.9 mph - N/A   Clear
5:53 PM 68.9 °F 48.4 °F 48% 30.20 in 10.0 mi ESE 5.8 mph - N/A   Clear
6:14 PM 67.8 °F 53.8 °F 61% 30.20 in 10.0 mi ESE 4.6 mph - N/A   Clear
6:33 PM 67.1 °F 54.9 °F 65% 30.20 in 10.0 mi ESE 5.8 mph - N/A   Clear
6:53 PM 66.2 °F 56.5 °F 71% 30.20 in 10.0 mi ESE 5.8 mph - N/A   Clear
7:14 PM 64.8 °F 58.8 °F 81% 30.19 in 10.0 mi SE 4.6 mph - N/A   Clear
7:33 PM 63.9 °F 59.7 °F 86% 30.19 in 10.0 mi SE 4.6 mph - N/A   Clear
7:54 PM 63.1 °F 59.5 °F 88% 30.19 in 10.0 mi Calm Calm - N/A   Clear
8:14 PM 63.0 °F 59.9 °F 90% 30.19 in 10.0 mi Calm Calm - N/A   Clear
8:33 PM 62.6 °F 60.4 °F 93% 30.19 in 10.0 mi East 3.5 mph - N/A   Clear
8:54 PM 61.3 °F 58.5 °F 90% 30.19 in 10.0 mi Calm Calm - N/A   Clear
9:14 PM 56.1 °F 54.0 °F 92% 30.19 in 7.0 mi Calm Calm - N/A   Clear
9:33 PM 53.8 °F 51.6 °F 92% 30.20 in 10.0 mi Calm Calm - N/A   Clear
9:54 PM 52.3 °F 50.9 °F 95% 30.20 in 10.0 mi Calm Calm - N/A   Clear
10:14 PM 51.3 °F 50.5 °F 97% 30.20 in 0.2 mi Calm Calm - N/A Fog Fog
10:33 PM 50.7 °F 50.2 °F 98% 30.20 in 1.0 mi Calm Calm - N/A   Overcast
10:54 PM 51.1 °F 50.5 °F 98% 30.20 in 0.2 mi Calm Calm - N/A Fog Fog
11:14 PM 49.3 °F 48.6 °F 97% 30.20 in 1.5 mi Calm Calm - N/A   Mostly Cloudy
11:33 PM 49.6 °F 48.7 °F 97% 30.20 in 10.0 mi Calm Calm - N/A   Clear
11:54 PM 48.9 °F 46.9 °F 93% 30.20 in 10.0 mi Calm Calm - N/A   Clear